Wind_Speed
8 8 8 8 8 8 8 9 9 9 9 9 9 10 11 11 12 12 13 13 14 14 15 16 16 17 18 19 21 22 23 23 23 23 25 26 26 26 26 26 25 25 26
8 8 8 8 9 9 10 10 10 10 10 10 11 11 12 12 13 13 14 14 14 15 16 16 17 18 18 19 20 21 22 23 24 23 24 25 26 26 26 26 26 26 26
9 9 9 9 10 10 10 11 11 11 11 11 12 12 13 13 14 14 14 14 15 15 16 16 17 18 19 20 20 21 22 23 23 24 24 25 25 25 25 26 26 27 27
10 9 9 10 11 11 12 11 11 12 13 13 13 14 14 14 14 15 15 15 16 17 17 18 19 20 21 22 22 23 23 24 24 24 24 24 25 24 25 26 27 28 28
10 10 11 11 12 12 12 12 12 12 13 13 14 14 15 16 16 16 16 16 17 17 18 19 20 20 21 22 22 23 23 23 24 24 24 24 24 25 25 27 27 28 29
12 12 12 12 12 13 13 13 13 13 13 14 15 15 16 17 16 16 17 18 18 18 19 20 21 22 22 22 22 23 24 24 24 24 24 24 25 26 27 28 28 28 29
13 13 13 13 13 14 14 14 14 14 15 16 16 17 17 17 17 18 18 19 19 19 20 20 21 22 22 23 23 23 23 24 24 24 25 25 26 27 27 28 29 29 30
16 15 15 16 15 15 15 15 15 16 16 17 18 17 17 18 19 19 20 20 20 21 21 22 22 22 23 23 23 24 24 25 25 26 26 27 27 27 28 28 29 30 30
18 17 16 17 17 17 17 17 17 17 17 17 17 17 17 18 19 19 20 21 22 22 22 22 22 23 23 24 24 25 26 26 27 27 28 28 29 29 30 31 31 31 32
19 18 18 18 18 19 19 19 18 18 18 18 18 17 17 18 18 19 20 21 22 23 23 24 24 25 25 26 26 26 27 27 28 29 30 30 30 31 32 33 33 33 33
20 20 20 20 20 20 20 20 19 19 19 19 19 18 18 18 19 20 21 22 23 23 24 25 25 26 27 27 27 28 28 29 30 30 31 31 32 33 34 34 34 35 35
21 21 21 21 21 20 20 20 20 20 20 20 20 20 20 20 21 22 23 24 24 25 25 26 27 27 28 29 29 29 30 31 31 31 32 33 34 34 34 35 35 36 36
24 23 23 22 22 21 21 21 21 22 22 22 22 22 23 23 24 24 25 26 26 27 27 28 28 29 30 31 31 31 31 32 32 33 33 34 35 35 35 35 36 36 36
26 25 25 24 24 24 24 23 23 24 24 24 24 24 25 26 26 27 28 28 28 29 30 30 31 31 31 32 32 32 33 33 34 34 35 36 36 36 36 36 36 35 35
27 27 26 26 25 25 25 25 25 26 25 26 26 27 27 27 28 29 30 30 31 31 32 32 33 33 32 33 33 33 34 35 35 36 36 36 36 36 36 36 35 35 35
29 28 28 27 27 27 27 27 27 27 27 27 28 28 29 29 30 31 31 32 33 33 33 33 33 34 33 33 34 34 35 35 35 35 35 36 36 36 35 35 35 34 34
30 30 29 29 29 29 28 28 28 28 28 29 29 30 31 32 32 33 33 34 33 34 34 34 34 33 33 34 34 35 35 35 35 35 35 35 35 35 34 34 34 34 33
32 31 31 31 30 30 29 29 29 30 30 31 31 32 33 34 34 35 35 34 34 35 35 34 34 34 34 34 34 35 35 34 34 35 35 34 34 34 34 33 33 33 33
33 33 33 32 31 31 30 31 31 31 31 31 32 33 34 34 35 35 35 34 34 35 35 35 35 35 34 34 34 34 34 34 34 34 34 33 33 33 33 32 33 33 32
33 33 33 33 32 32 32 32 32 33 33 33 34 34 35 35 35 35 34 34 34 34 34 35 35 35 34 34 34 34 34 34 33 33 32 33 32 32 32 32 32 32 32
34 34 34 34 34 34 34 34 34 34 35 35 35 35 36 35 35 35 35 35 35 35 35 35 35 34 34 34 34 34 33 32 32 32 33 33 32 32 32 32 31 31 32
35 34 35 35 35 35 36 36 36 36 36 36 36 36 36 37 36 35 35 36 36 35 35 34 34 33 33 33 33 33 33 32 32 33 32 32 32 32 32 31 31 31 31
36 36 36 36 36 36 36 36 36 36 37 37 36 36 36 36 36 35 35 35 34 34 34 33 33 32 32 32 32 32 32 32 32 33 32 32 33 33 32 32 32 32 31
35 35 35 36 36 36 36 36 36 37 38 36 35 35 35 34 34 34 34 34 34 34 34 34 33 32 32 32 32 32 33 32 32 32 32 32 33 32 32 32 32 32 31
35 35 35 35 34 35 36 35 35 36 35 34 33 33 33 34 34 34 34 34 34 34 33 33 33 32 32 33 32 32 32 32 32 32 32 32 32 32 32 31 31 30 30
33 34 34 33 33 34 34 34 34 34 33 32 32 32 32 33 33 32 32 32 32 32 32 31 31 32 32 32 32 32 32 32 32 32 32 32 31 31 31 31 31 31 31
Wind_Direction
312 310 307 307 303 297 291 291 286 284 279 277 283 288 289 287 287 286 281 280 280 283 283 281 281 282 283 285 285 284 284 284 285 285 284 284 287 287 288 289 288 288 288
312 309 307 304 305 301 296 295 291 286 283 281 282 288 290 289 288 287 283 283 284 285 283 283 283 284 286 288 287 287 286 286 287 286 285 285 287 287 287 287 288 289 288
312 305 305 305 306 307 304 298 295 288 283 285 286 287 288 288 286 285 283 285 287 287 287 286 287 288 288 289 290 290 291 290 290 289 288 287 288 288 286 287 289 289 289
317 312 307 305 304 304 305 302 298 290 282 281 284 285 287 288 289 288 285 286 287 288 289 288 287 288 289 289 290 291 292 292 291 290 289 288 289 289 288 288 289 289 290
317 310 307 303 303 305 304 299 295 296 291 285 285 285 285 286 287 289 287 287 288 287 289 290 290 290 291 291 291 291 292 294 293 292 292 291 290 289 290 291 290 290 290
318 310 306 305 303 302 303 302 299 297 296 293 292 290 286 284 285 288 290 292 292 291 292 293 293 292 293 292 291 291 292 293 294 294 294 292 292 291 292 292 291 291 292
311 309 306 304 303 300 300 301 299 297 295 294 294 290 287 285 285 286 288 291 293 293 293 294 293 293 293 293 291 291 292 293 293 294 294 294 294 294 294 294 293 293 293
304 303 302 301 299 297 297 299 298 296 295 294 293 292 290 288 287 287 290 293 294 294 295 293 293 293 294 294 293 292 292 292 292 293 294 294 294 294 294 294 294 294 294
298 298 297 298 297 297 298 297 296 295 294 295 298 293 290 290 290 290 291 292 293 294 294 294 293 293 294 294 293 292 292 292 293 293 293 294 294 294 295 295 295 294 294
294 295 295 296 295 294 294 294 295 295 295 297 298 295 293 294 294 294 293 293 293 294 295 295 294 294 293 294 292 292 291 292 293 293 293 294 294 294 295 295 296 295 295
291 290 292 293 292 291 291 291 293 293 295 296 298 296 295 295 293 292 293 294 295 295 295 295 295 295 294 293 293 293 292 292 293 293 293 294 295 296 296 296 296 296 295
294 292 290 291 291 290 290 290 291 292 293 293 293 295 297 297 295 293 293 294 295 296 297 297 296 296 295 294 293 293 293 293 293 293 294 294 294 295 296 296 296 297 296
295 295 293 289 289 288 289 290 291 291 291 291 292 293 295 296 297 298 298 297 296 297 298 299 298 297 295 294 293 292 292 292 293 293 294 294 295 295 295 295 296 296 296
294 294 294 292 292 292 292 291 292 293 291 292 293 293 293 295 297 298 299 299 298 299 299 299 299 297 296 294 293 292 293 293 293 293 294 295 295 295 295 296 296 296 296
291 292 292 290 291 292 294 294 295 295 293 291 292 293 295 296 297 298 299 298 298 298 298 298 298 297 296 294 293 293 293 293 293 294 294 294 294 294 294 295 296 296 296
288 288 289 289 288 289 291 292 294 294 292 291 291 293 294 295 297 299 299 299 298 298 298 298 298 297 295 295 294 294 293 293 293 294 294 294 294 294 295 295 296 296 296
285 285 286 287 289 288 289 290 292 293 292 290 291 293 294 295 296 298 299 299 298 298 297 297 297 297 295 294 294 294 294 294 294 294 294 294 294 295 296 296 296 296 296
283 284 284 285 287 288 288 289 290 291 291 290 291 292 294 295 296 297 298 299 298 298 297 297 297 296 295 294 294 294 294 294 294 294 295 295 295 296 296 296 297 296 296
281 282 283 283 284 285 286 288 289 289 289 289 290 292 294 295 296 297 298 298 299 298 297 296 296 296 295 295 295 294 294 294 294 295 295 295 295 295 295 296 297 297 295
280 282 282 283 283 283 284 285 287 287 288 288 290 292 294 295 296 296 296 298 299 299 298 297 296 296 296 295 295 295 294 294 294 294 295 295 295 294 295 295 295 295 295
279 280 280 281 281 282 284 285 285 286 287 288 289 290 292 294 295 296 295 296 297 297 297 296 296 296 296 296 295 295 294 293 293 294 294 294 294 295 296 296 295 295 295
276 278 280 280 280 281 282 283 284 285 286 287 287 289 291 293 294 294 294 295 296 296 297 297 296 296 296 296 295 295 294 292 293 294 294 293 293 294 295 295 295 295 295
275 276 277 279 279 280 281 283 283 284 286 287 287 288 290 291 292 293 293 294 295 296 296 297 297 297 297 297 296 295 295 294 294 294 294 293 293 294 294 295 295 295 295
274 275 276 277 278 280 280 281 284 286 286 287 288 288 289 291 292 292 292 293 294 296 297 297 296 296 296 296 296 296 296 295 295 295 294 293 293 293 293 293 293 294 294
274 275 277 277 279 280 280 281 284 286 286 287 289 290 291 291 291 291 292 293 294 295 296 296 295 295 296 296 296 297 297 297 297 296 295 295 294 294 294 294 294 294 294
275 276 277 279 280 281 282 283 284 285 286 287 288 289 290 291 292 292 293 294 294 295 296 296 296 296 297 297 297 297 298 298 299 299 298 297 296 295 294 294 294 294 294
Height
5888 5887 5886 5886 5885 5884 5884 5884 5883 5883 5882 5882 5881 5881 5880 5879 5879 5878 5878 5877 5876 5876 5875 5874 5873 5872 5871 5870 5869 5867 5866 5865 5865 5864 5862 5860 5858 5856 5855 5853 5852 5850 5849
5886 5885 5884 5884 5883 5883 5882 5881 5881 5880 5880 5879 5879 5878 5877 5876 5876 5875 5874 5873 5873 5872 5871 5870 5869 5868 5867 5865 5864 5862 5861 5860 5859 5857 5856 5854 5852 5850 5849 5847 5845 5844 5842
5884 5883 5882 5882 5881 5881 5880 5879 5878 5877 5877 5876 5875 5875 5874 5873 5872 5871 5870 5870 5869 5868 5867 5866 5865 5863 5862 5860 5859 5857 5856 5854 5852 5851 5849 5848 5846 5844 5842 5841 5839 5837 5835
5882 5881 5881 5880 5879 5878 5877 5876 5875 5874 5873 5872 5872 5871 5870 5869 5868 5867 5866 5866 5865 5864 5863 5861 5860 5859 5857 5856 5854 5852 5850 5848 5846 5845 5843 5842 5840 5838 5836 5835 5833 5831 5829
5881 5880 5879 5878 5877 5875 5874 5873 5872 5871 5870 5869 5868 5867 5867 5865 5864 5863 5862 5861 5860 5860 5858 5857 5855 5853 5852 5850 5848 5846 5844 5842 5841 5839 5837 5835 5833 5832 5830 5828 5826 5824 5821
5879 5878 5876 5875 5874 5873 5871 5870 5869 5868 5867 5866 5865 5863 5862 5861 5860 5859 5858 5857 5856 5854 5853 5852 5850 5848 5846 5844 5842 5840 5839 5837 5835 5833 5831 5829 5827 5825 5823 5821 5819 5817 5814
5876 5875 5873 5872 5871 5869 5868 5867 5865 5864 5863 5862 5860 5859 5858 5857 5855 5854 5853 5852 5851 5849 5848 5846 5844 5842 5840 5838 5836 5835 5833 5830 5829 5827 5825 5823 5821 5818 5816 5814 5811 5809 5807
5873 5871 5870 5868 5867 5866 5864 5863 5862 5861 5859 5857 5856 5854 5853 5852 5851 5850 5848 5847 5845 5844 5842 5841 5839 5837 5835 5833 5831 5829 5826 5824 5822 5820 5818 5816 5814 5811 5809 5806 5804 5801 5799
5868 5866 5865 5864 5863 5861 5860 5859 5857 5856 5855 5853 5851 5850 5848 5847 5845 5844 5843 5842 5840 5838 5836 5834 5833 5831 5829 5827 5825 5822 5820 5818 5815 5813 5811 5809 5806 5804 5801 5798 5796 5793 5790
5863 5862 5860 5859 5858 5857 5856 5854 5853 5852 5850 5848 5847 5845 5843 5842 5840 5839 5838 5836 5834 5833 5831 5828 5826 5824 5822 5820 5817 5815 5813 5811 5808 5806 5804 5801 5798 5796 5793 5790 5787 5784 5782
5858 5857 5856 5854 5853 5852 5850 5849 5848 5847 5845 5844 5842 5840 5838 5837 5835 5834 5832 5830 5828 5826 5824 5822 5820 5817 5815 5812 5810 5808 5806 5803 5801 5798 5796 5793 5790 5787 5784 5781 5778 5775 5772
5853 5852 5850 5849 5847 5846 5845 5844 5843 5841 5840 5839 5837 5835 5833 5832 5830 5828 5826 5824 5822 5820 5817 5815 5812 5810 5807 5805 5802 5800 5797 5795 5792 5790 5787 5784 5781 5778 5775 5772 5769 5766 5763
5848 5846 5844 5843 5842 5841 5839 5838 5837 5835 5834 5833 5831 5830 5828 5826 5824 5822 5819 5817 5815 5812 5810 5807 5805 5802 5799 5797 5794 5791 5788 5786 5783 5781 5778 5775 5772 5769 5765 5762 5759 5756 5753
5842 5841 5840 5838 5837 5835 5833 5831 5830 5829 5828 5827 5825 5823 5821 5819 5817 5815 5812 5810 5807 5804 5802 5799 5796 5793 5791 5788 5785 5782 5779 5777 5774 5771 5768 5765 5762 5759 5756 5753 5750 5746 5743
5835 5834 5833 5832 5830 5828 5827 5825 5824 5823 5821 5820 5818 5816 5814 5812 5810 5807 5805 5802 5799 5797 5794 5791 5788 5785 5782 5779 5776 5773 5770 5767 5764 5761 5758 5755 5752 5749 5746 5743 5740 5737 5734
5828 5827 5826 5824 5823 5821 5820 5818 5817 5815 5814 5812 5810 5808 5806 5804 5802 5799 5796 5793 5790 5788 5785 5782 5778 5775 5772 5769 5766 5763 5760 5757 5754 5751 5748 5745 5742 5739 5736 5733 5730 5727 5724
5820 5819 5818 5817 5816 5814 5812 5811 5809 5807 5805 5804 5802 5800 5798 5795 5793 5790 5787 5784 5781 5778 5775 5772 5769 5766 5763 5760 5757 5754 5750 5747 5744 5741 5738 5735 5732 5729 5726 5723 5720 5718 5715
5811 5810 5809 5808 5807 5806 5804 5802 5801 5799 5797 5795 5793 5791 5789 5786 5783 5781 5778 5775 5772 5769 5765 5762 5759 5756 5753 5750 5747 5744 5740 5737 5734 5731 5728 5725 5722 5720 5717 5714 5711 5708 5706
5802 5801 5800 5799 5798 5797 5795 5793 5792 5790 5788 5786 5784 5782 5779 5776 5773 5771 5768 5765 5762 5759 5755 5752 5749 5746 5743 5740 5737 5734 5731 5728 5725 5722 5719 5716 5713 5710 5707 5704 5702 5699 5696
5792 5791 5790 5789 5788 5787 5785 5784 5782 5781 5779 5777 5775 5772 5769 5767 5764 5761 5758 5755 5752 5749 5745 5742 5739 5736 5733 5730 5727 5724 5721 5718 5715 5712 5709 5706 5704 5701 5698 5695 5692 5690 5687
5782 5781 5780 5779 5778 5777 5775 5774 5772 5771 5769 5766 5764 5762 5759 5757 5754 5751 5748 5745 5742 5739 5736 5732 5729 5726 5723 5720 5717 5714 5711 5708 5705 5703 5700 5697 5694 5692 5689 5686 5683 5680 5678
5771 5771 5770 5769 5768 5766 5765 5763 5762 5760 5758 5756 5754 5751 5749 5746 5743 5741 5738 5735 5732 5729 5726 5722 5719 5716 5713 5710 5707 5704 5701 5699 5696 5693 5690 5688 5685 5682 5679 5677 5674 5671 5668
5760 5759 5759 5758 5757 5755 5754 5752 5751 5749 5747 5745 5743 5740 5738 5736 5733 5730 5728 5725 5722 5719 5716 5713 5710 5707 5704 5700 5698 5695 5692 5689 5686 5683 5681 5678 5675 5672 5670 5667 5664 5662 5659
5749 5748 5748 5747 5746 5745 5743 5742 5740 5738 5736 5734 5732 5730 5727 5725 5723 5720 5718 5715 5712 5709 5706 5703 5700 5697 5694 5691 5688 5685 5682 5679 5676 5673 5671 5668 5665 5663 5660 5658 5655 5653 5650
5738 5737 5737 5736 5736 5734 5733 5731 5729 5728 5726 5724 5722 5719 5717 5715 5712 5710 5708 5705 5702 5700 5697 5694 5691 5688 5685 5682 5679 5676 5673 5670 5667 5664 5661 5658 5655 5653 5650 5648 5645 5643 5641
5727 5727 5726 5726 5725 5724 5722 5721 5719 5717 5715 5714 5712 5710 5707 5705 5703 5700 5698 5695 5693 5690 5687 5684 5682 5679 5676 5673 5670 5667 5664 5661 5658 5654 5651 5649 5646 5643 5641 5638 5636 5634 5631